User: anonymous   Login
Location: Angwan Shehu
(11.2514°N, 7.4613°E)
Time: 18:48:39
(UTC+00:00)
Language:

Transit 4A - Orbit

View from above orbital plane
View from above orbital plane
View from above satellite
View from above satellite

Ground track
Ground track

The orbit data is extracted from the following two-line orbital elements,

1   116U 61015A   21109.52721727 -.00000056  00000-0  16273-4 0  9992
2   116  66.8097 179.9676 0072737 159.3632 201.0412 13.91787971 34905
Epoch (UTC): 19 April 2021 12:39:11
Eccentricity: 0.0072737
inclination: 66.8097°
perigee height: 869 km
apogee height: 975 km
right ascension of ascending node: 179.9676°
argument of perigee: 159.3632°
revolutions per day: 13.91787971
mean anomaly at epoch: 201.0412°
orbit number at epoch: 3490

The dashed part of the orbit path shows where the satellite is in the earth's shadow,  

DLR